Time,TemperatureF,DewpointF,PressureIn,WindDirection,WindDirectionDegrees,WindSpeedMPH,WindSpeedGustMPH,Humidity,HourlyPrecipIn,Conditions,Clouds,dailyrainin,SoftwareType,DateUTC
2013-12-21 00:00:00,45.4,39.6,30.00,N/A,-737280,0.0,0.0,80,0.00,,,0.00,Wunderground v.1.13,2013-12-21 05:00:00,
2013-12-21 00:10:00,45.4,39.6,30.00,N/A,-737280,0.0,0.0,80,0.00,,,0.00,Wunderground v.1.13,2013-12-21 05:10:00,
2013-12-21 00:20:00,45.4,39.6,30.00,N/A,-737280,0.0,0.0,80,0.00,,,0.00,Wunderground v.1.13,2013-12-21 05:20:00,
2013-12-21 00:30:00,45.4,39.6,30.00,N/A,-737280,0.0,0.0,80,0.00,,,0.00,Wunderground v.1.13,2013-12-21 05:30:00,
2013-12-21 00:40:00,45.4,39.6,30.00,N/A,-737280,0.0,0.0,80,0.00,,,0.00,Wunderground v.1.13,2013-12-21 05:40:00,
2013-12-21 00:50:00,45.0,39.8,30.00,NE,45,0.0,1.0,82,0.00,,,0.00,Wunderground v.1.13,2013-12-21 05:50:00,
2013-12-21 01:00:00,45.0,39.8,30.00,NE,45,0.0,1.0,82,0.00,,,0.00,Wunderground v.1.13,2013-12-21 06:00:00,
2013-12-21 01:10:00,45.0,39.8,30.00,NE,45,0.0,1.0,82,0.00,,,0.00,Wunderground v.1.13,2013-12-21 06:10:00,
2013-12-21 01:20:00,44.7,39.2,29.99,N/A,-737280,0.0,0.0,81,0.00,,,0.00,Wunderground v.1.13,2013-12-21 06:20:00,
2013-12-21 01:30:00,44.7,39.2,29.99,N/A,-737280,0.0,0.0,81,0.00,,,0.00,Wunderground v.1.13,2013-12-21 06:30:00,
2013-12-21 01:40:00,44.7,39.2,29.99,N/A,-737280,0.0,0.0,81,0.00,,,0.00,Wunderground v.1.13,2013-12-21 06:40:00,
2013-12-21 01:50:00,44.2,39.4,29.99,NE,45,0.0,1.0,83,0.00,,,0.00,Wunderground v.1.13,2013-12-21 06:50:00,
2013-12-21 02:00:00,44.2,39.4,29.99,NE,45,0.0,1.0,83,0.00,,,0.00,Wunderground v.1.13,2013-12-21 07:00:00,
2013-12-21 02:10:00,44.2,39.4,29.99,NE,45,0.0,1.0,83,0.00,,,0.00,Wunderground v.1.13,2013-12-21 07:10:00,
2013-12-21 02:20:00,44.2,39.7,29.99,N/A,-737280,0.0,0.0,84,0.00,,,0.00,Wunderground v.1.13,2013-12-21 07:20:00,
2013-12-21 02:30:00,44.2,39.7,29.99,N/A,-737280,0.0,0.0,84,0.00,,,0.00,Wunderground v.1.13,2013-12-21 07:30:00,
2013-12-21 02:40:00,44.2,39.7,29.99,N/A,-737280,0.0,0.0,84,0.00,,,0.00,Wunderground v.1.13,2013-12-21 07:40:00,
2013-12-21 02:50:00,44.5,40.0,29.99,NE,45,0.0,1.0,84,0.00,,,0.00,Wunderground v.1.13,2013-12-21 07:50:00,
2013-12-21 03:00:00,44.5,40.0,29.99,NE,45,0.0,1.0,84,0.00,,,0.00,Wunderground v.1.13,2013-12-21 08:00:00,
2013-12-21 03:10:00,44.5,40.0,29.99,NE,45,0.0,1.0,84,0.00,,,0.00,Wunderground v.1.13,2013-12-21 08:10:00,
2013-12-21 03:20:00,45.1,39.9,29.98,N/A,-737280,0.0,0.0,82,0.00,,,0.00,Wunderground v.1.13,2013-12-21 08:20:00,
2013-12-21 03:30:00,45.1,39.9,29.98,N/A,-737280,0.0,0.0,82,0.00,,,0.00,Wunderground v.1.13,2013-12-21 08:30:00,
2013-12-21 03:40:00,45.1,39.9,29.98,N/A,-737280,0.0,0.0,82,0.00,,,0.00,Wunderground v.1.13,2013-12-21 08:40:00,
2013-12-21 03:50:00,45.6,40.4,29.97,N/A,-737280,0.0,0.0,82,0.00,,,0.00,Wunderground v.1.13,2013-12-21 08:50:00,
2013-12-21 04:00:00,45.6,40.4,29.97,N/A,-737280,0.0,0.0,82,0.00,,,0.00,Wunderground v.1.13,2013-12-21 09:00:00,
2013-12-21 04:10:00,45.6,40.4,29.97,N/A,-737280,0.0,0.0,82,0.00,,,0.00,Wunderground v.1.13,2013-12-21 09:10:00,
2013-12-21 04:20:00,45.1,39.9,29.97,NE,45,0.0,1.0,82,0.00,,,0.00,Wunderground v.1.13,2013-12-21 09:20:00,
2013-12-21 04:30:00,45.1,39.9,29.97,NE,45,0.0,1.0,82,0.00,,,0.00,Wunderground v.1.13,2013-12-21 09:30:00,
2013-12-21 04:40:00,45.1,39.9,29.97,NE,45,0.0,1.0,82,0.00,,,0.00,Wunderground v.1.13,2013-12-21 09:40:00,
2013-12-21 04:50:00,44.8,39.6,29.96,N/A,-737280,0.0,0.0,82,0.00,,,0.00,Wunderground v.1.13,2013-12-21 09:50:00,
2013-12-21 05:00:00,44.8,39.6,29.96,N/A,-737280,0.0,0.0,82,0.00,,,0.00,Wunderground v.1.13,2013-12-21 10:00:00,
2013-12-21 05:10:00,44.8,39.6,29.96,N/A,-737280,0.0,0.0,82,0.00,,,0.00,Wunderground v.1.13,2013-12-21 10:10:00,
2013-12-21 05:20:00,44.4,39.2,29.97,N/A,-737280,0.0,0.0,82,0.00,,,0.00,Wunderground v.1.13,2013-12-21 10:20:00,
2013-12-21 05:30:00,44.4,39.2,29.97,N/A,-737280,0.0,0.0,82,0.00,,,0.00,Wunderground v.1.13,2013-12-21 10:30:00,
2013-12-21 05:40:00,44.4,39.2,29.97,N/A,-737280,0.0,0.0,82,0.00,,,0.00,Wunderground v.1.13,2013-12-21 10:40:00,
2013-12-21 05:50:00,44.2,39.1,29.96,N/A,-737280,0.0,0.0,82,0.00,,,0.00,Wunderground v.1.13,2013-12-21 10:50:00,
2013-12-21 06:00:00,44.2,39.1,29.96,N/A,-737280,0.0,0.0,82,0.00,,,0.00,Wunderground v.1.13,2013-12-21 11:00:00,
2013-12-21 06:10:00,44.2,39.1,29.96,N/A,-737280,0.0,0.0,82,0.00,,,0.00,Wunderground v.1.13,2013-12-21 11:10:00,
2013-12-21 06:20:00,44.4,38.9,29.96,N/A,-737280,0.0,0.0,81,0.00,,,0.00,Wunderground v.1.13,2013-12-21 11:20:00,
2013-12-21 06:30:00,44.4,38.9,29.96,N/A,-737280,0.0,0.0,81,0.00,,,0.00,Wunderground v.1.13,2013-12-21 11:30:00,
2013-12-21 06:40:00,44.4,38.9,29.96,N/A,-737280,0.0,0.0,81,0.00,,,0.00,Wunderground v.1.13,2013-12-21 11:40:00,
2013-12-21 06:50:00,44.2,38.7,29.96,NE,45,0.0,1.0,81,0.00,,,0.00,Wunderground v.1.13,2013-12-21 11:50:00,
2013-12-21 07:00:00,44.2,38.7,29.96,NE,45,0.0,1.0,81,0.00,,,0.00,Wunderground v.1.13,2013-12-21 12:00:00,
2013-12-21 07:10:00,44.2,38.7,29.96,NE,45,0.0,1.0,81,0.00,,,0.00,Wunderground v.1.13,2013-12-21 12:10:00,
2013-12-21 07:20:00,43.8,38.7,29.96,N/A,-737280,0.0,0.0,82,0.00,,,0.00,Wunderground v.1.13,2013-12-21 12:20:00,
2013-12-21 07:30:00,43.8,38.7,29.96,N/A,-737280,0.0,0.0,82,0.00,,,0.00,Wunderground v.1.13,2013-12-21 12:30:00,
2013-12-21 07:40:00,43.8,38.7,29.96,N/A,-737280,0.0,0.0,82,0.00,,,0.00,Wunderground v.1.13,2013-12-21 12:40:00,
2013-12-21 07:50:00,43.8,39.3,29.94,NE,45,0.0,1.0,84,0.00,,,0.00,Wunderground v.1.13,2013-12-21 12:50:00,
2013-12-21 08:00:00,43.8,39.3,29.94,NE,45,0.0,1.0,84,0.00,,,0.00,Wunderground v.1.13,2013-12-21 13:00:00,
2013-12-21 08:10:00,43.8,39.3,29.94,NE,45,0.0,1.0,84,0.00,,,0.00,Wunderground v.1.13,2013-12-21 13:10:00,
2013-12-21 08:20:00,45.1,40.6,29.94,N/A,-737280,0.0,0.0,84,0.00,,,0.00,Wunderground v.1.13,2013-12-21 13:20:00,
2013-12-21 08:30:00,45.1,40.6,29.94,N/A,-737280,0.0,0.0,84,0.00,,,0.00,Wunderground v.1.13,2013-12-21 13:30:00,
2013-12-21 08:40:00,45.1,40.6,29.94,N/A,-737280,0.0,0.0,84,0.00,,,0.00,Wunderground v.1.13,2013-12-21 13:40:00,
2013-12-21 08:50:00,48.1,42.5,29.93,N/A,-737280,0.0,0.0,81,0.00,,,0.00,Wunderground v.1.13,2013-12-21 13:50:00,
2013-12-21 09:00:00,48.1,42.5,29.93,N/A,-737280,0.0,0.0,81,0.00,,,0.00,Wunderground v.1.13,2013-12-21 14:00:00,
2013-12-21 09:10:00,48.1,42.5,29.93,N/A,-737280,0.0,0.0,81,0.00,,,0.00,Wunderground v.1.13,2013-12-21 14:10:00,
2013-12-21 09:20:00,52.1,44.4,29.92,NE,45,0.0,1.0,75,0.00,,,0.00,Wunderground v.1.13,2013-12-21 14:20:00,
2013-12-21 09:30:00,52.1,44.4,29.92,NE,45,0.0,1.0,75,0.00,,,0.00,Wunderground v.1.13,2013-12-21 14:30:00,
2013-12-21 09:40:00,52.1,44.4,29.92,NE,45,0.0,1.0,75,0.00,,,0.00,Wunderground v.1.13,2013-12-21 14:40:00,
2013-12-21 09:50:00,54.7,44.7,29.92,NE,45,0.0,1.0,69,0.00,,,0.00,Wunderground v.1.13,2013-12-21 14:50:00,
2013-12-21 10:20:00,59.1,46.1,29.91,East,90,0.0,3.0,62,0.00,,,0.00,Wunderground v.1.13,2013-12-21 15:20:00,
2013-12-21 10:40:00,59.1,46.1,29.91,East,90,0.0,3.0,62,0.00,,,0.00,Wunderground v.1.13,2013-12-21 15:40:00,
2013-12-21 10:50:00,61.2,48.5,29.88,East,90,0.0,2.0,63,0.00,,,0.00,Wunderground v.1.13,2013-12-21 15:50:00,
2013-12-21 11:00:00,61.2,48.5,29.88,East,90,0.0,2.0,63,0.00,,,0.00,Wunderground v.1.13,2013-12-21 16:00:00,
2013-12-21 11:10:00,61.2,48.5,29.88,East,90,0.0,2.0,63,0.00,,,0.00,Wunderground v.1.13,2013-12-21 16:10:00,
2013-12-21 11:20:00,63.3,48.7,29.88,East,90,0.0,3.0,59,0.00,,,0.00,Wunderground v.1.13,2013-12-21 16:20:00,
2013-12-21 11:30:00,63.3,48.7,29.88,East,90,0.0,3.0,59,0.00,,,0.00,Wunderground v.1.13,2013-12-21 16:30:00,
2013-12-21 11:40:00,63.3,48.7,29.88,East,90,0.0,3.0,59,0.00,,,0.00,Wunderground v.1.13,2013-12-21 16:40:00,
2013-12-21 11:50:00,66.7,51.0,29.86,ESE,113,0.0,6.0,57,0.00,,,0.00,Wunderground v.1.13,2013-12-21 16:50:00,
2013-12-21 12:00:00,66.7,51.0,29.86,ESE,113,0.0,6.0,57,0.00,,,0.00,Wunderground v.1.13,2013-12-21 17:00:00,
2013-12-21 12:10:00,66.7,51.0,29.86,ESE,113,0.0,6.0,57,0.00,,,0.00,Wunderground v.1.13,2013-12-21 17:10:00,
2013-12-21 12:20:00,68.0,51.7,29.85,ESE,113,0.0,2.0,56,0.00,,,0.00,Wunderground v.1.13,2013-12-21 17:20:00,
2013-12-21 12:30:00,68.0,51.7,29.85,ESE,113,0.0,2.0,56,0.00,,,0.00,Wunderground v.1.13,2013-12-21 17:30:00,
2013-12-21 12:40:00,68.0,51.7,29.85,ESE,113,0.0,2.0,56,0.00,,,0.00,Wunderground v.1.13,2013-12-21 17:40:00,
2013-12-21 12:50:00,67.7,54.2,29.84,ESE,113,0.0,1.0,62,0.00,,,0.00,Wunderground v.1.13,2013-12-21 17:50:00,
2013-12-21 13:00:00,67.7,54.2,29.84,ESE,113,0.0,1.0,62,0.00,,,0.00,Wunderground v.1.13,2013-12-21 18:00:00,
2013-12-21 13:10:00,67.7,54.2,29.84,ESE,113,0.0,1.0,62,0.00,,,0.00,Wunderground v.1.13,2013-12-21 18:10:00,
2013-12-21 13:20:00,68.8,56.6,29.83,ESE,113,0.0,1.0,65,0.00,,,0.00,Wunderground v.1.13,2013-12-21 18:20:00,
2013-12-21 13:30:00,68.8,56.6,29.83,ESE,113,0.0,1.0,65,0.00,,,0.00,Wunderground v.1.13,2013-12-21 18:30:00,
2013-12-21 13:40:00,68.8,56.6,29.83,ESE,113,0.0,1.0,65,0.00,,,0.00,Wunderground v.1.13,2013-12-21 18:40:00,
2013-12-21 13:50:00,70.7,58.8,29.83,WNW,293,0.0,3.0,66,0.00,,,0.00,Wunderground v.1.13,2013-12-21 18:50:00,
2013-12-21 14:00:00,70.7,58.8,29.83,WNW,293,0.0,3.0,66,0.00,,,0.00,Wunderground v.1.13,2013-12-21 19:00:00,
2013-12-21 14:10:00,70.7,58.8,29.83,WNW,293,0.0,3.0,66,0.00,,,0.00,Wunderground v.1.13,2013-12-21 19:10:00,
2013-12-21 14:20:00,71.7,59.3,29.81,WNW,293,0.0,4.0,65,0.00,,,0.00,Wunderground v.1.13,2013-12-21 19:20:00,
2013-12-21 14:40:00,71.7,59.3,29.81,WNW,293,0.0,4.0,65,0.00,,,0.00,Wunderground v.1.13,2013-12-21 19:40:00,
2013-12-21 15:00:00,72.9,59.1,29.81,West,270,0.0,3.0,62,0.00,,,0.00,Wunderground v.1.13,2013-12-21 20:00:00,
2013-12-21 15:10:00,72.9,59.1,29.81,West,270,0.0,3.0,62,0.00,,,0.00,Wunderground v.1.13,2013-12-21 20:10:00,
2013-12-21 15:30:00,72.4,58.6,29.82,East,90,0.0,4.0,62,0.00,,,0.00,Wunderground v.1.13,2013-12-21 20:30:00,
2013-12-21 15:40:00,72.4,58.6,29.82,East,90,0.0,4.0,62,0.00,,,0.00,Wunderground v.1.13,2013-12-21 20:40:00,
2013-12-21 15:50:00,71.5,58.2,29.81,NNW,338,0.0,3.0,63,0.00,,,0.00,Wunderground v.1.13,2013-12-21 20:50:00,
2013-12-21 16:00:00,71.5,58.2,29.81,NNW,338,0.0,3.0,63,0.00,,,0.00,Wunderground v.1.13,2013-12-21 21:00:00,
2013-12-21 16:10:00,71.5,58.2,29.81,NNW,338,0.0,3.0,63,0.00,,,0.00,Wunderground v.1.13,2013-12-21 21:10:00,
2013-12-21 16:20:00,71.2,58.0,29.84,SW,225,0.0,3.0,63,0.00,,,0.00,Wunderground v.1.13,2013-12-21 21:20:00,
2013-12-21 16:30:00,71.2,58.0,29.84,SW,225,0.0,3.0,63,0.00,,,0.00,Wunderground v.1.13,2013-12-21 21:30:00,
2013-12-21 16:40:00,71.2,58.0,29.84,SW,225,0.0,3.0,63,0.00,,,0.00,Wunderground v.1.13,2013-12-21 21:40:00,
2013-12-21 16:50:00,71.5,57.3,29.82,ESE,113,1.0,7.0,61,0.00,,,0.00,Wunderground v.1.13,2013-12-21 21:50:00,
2013-12-21 17:00:00,71.5,57.3,29.82,ESE,113,1.0,7.0,61,0.00,,,0.00,Wunderground v.1.13,2013-12-21 22:00:00,
2013-12-21 17:10:00,71.5,57.3,29.82,ESE,113,1.0,7.0,61,0.00,,,0.00,Wunderground v.1.13,2013-12-21 22:10:00,
2013-12-21 17:20:00,70.3,57.1,29.83,NE,45,0.0,2.0,63,0.00,,,0.00,Wunderground v.1.13,2013-12-21 22:20:00,
2013-12-21 17:30:00,70.3,57.1,29.83,NE,45,0.0,2.0,63,0.00,,,0.00,Wunderground v.1.13,2013-12-21 22:30:00,
2013-12-21 17:40:00,70.3,57.1,29.83,NE,45,0.0,2.0,63,0.00,,,0.00,Wunderground v.1.13,2013-12-21 22:40:00,
2013-12-21 17:50:00,70.2,56.6,29.82,NE,45,0.0,3.0,62,0.00,,,0.00,Wunderground v.1.13,2013-12-21 22:50:00,
2013-12-21 18:00:00,70.2,56.6,29.82,NE,45,0.0,3.0,62,0.00,,,0.00,Wunderground v.1.13,2013-12-21 23:00:00,
2013-12-21 18:10:00,70.2,56.6,29.82,NE,45,0.0,3.0,62,0.00,,,0.00,Wunderground v.1.13,2013-12-21 23:10:00,
2013-12-21 18:20:00,73.2,57.1,29.84,SE,135,2.0,6.0,57,0.00,,,0.00,Wunderground v.1.13,2013-12-21 23:20:00,
2013-12-21 18:30:00,73.2,57.1,29.84,SE,135,2.0,6.0,57,0.00,,,0.00,Wunderground v.1.13,2013-12-21 23:30:00,
2013-12-21 18:40:00,73.2,57.1,29.84,SE,135,2.0,6.0,57,0.00,,,0.00,Wunderground v.1.13,2013-12-21 23:40:00,
2013-12-21 18:50:00,71.2,57.1,29.83,SE,135,1.0,6.0,61,0.00,,,0.00,Wunderground v.1.13,2013-12-21 23:50:00,
2013-12-21 19:00:00,71.2,57.1,29.83,SE,135,1.0,6.0,61,0.00,,,0.00,Wunderground v.1.13,2013-12-22 00:00:00,
2013-12-21 19:10:00,71.2,57.1,29.83,SE,135,1.0,6.0,61,0.00,,,0.00,Wunderground v.1.13,2013-12-22 00:10:00,
2013-12-21 19:20:00,73.2,57.5,29.81,SE,135,2.0,13.0,58,0.00,,,0.00,Wunderground v.1.13,2013-12-22 00:20:00,
2013-12-21 19:30:00,73.2,57.5,29.81,SE,135,2.0,13.0,58,0.00,,,0.00,Wunderground v.1.13,2013-12-22 00:30:00,
2013-12-21 19:40:00,73.2,57.5,29.81,SE,135,2.0,13.0,58,0.00,,,0.00,Wunderground v.1.13,2013-12-22 00:40:00,
2013-12-21 19:50:00,73.1,57.9,29.82,SSE,158,1.0,11.0,59,0.00,,,0.00,Wunderground v.1.13,2013-12-22 00:50:00,
2013-12-21 20:10:00,73.1,57.9,29.82,SSE,158,1.0,11.0,59,0.00,,,0.00,Wunderground v.1.13,2013-12-22 01:10:00,
2013-12-21 20:20:00,73.9,57.7,29.80,SSE,158,2.0,12.0,57,0.00,,,0.00,Wunderground v.1.13,2013-12-22 01:20:00,
2013-12-21 20:50:00,74.5,58.3,29.78,SSE,158,3.0,12.0,57,0.00,,,0.00,Wunderground v.1.13,2013-12-22 01:50:00,
2013-12-21 21:10:00,74.5,58.3,29.78,SSE,158,3.0,12.0,57,0.00,,,0.00,Wunderground v.1.13,2013-12-22 02:10:00,
2013-12-21 21:20:00,74.1,57.9,29.76,SE,135,2.0,10.0,57,0.00,,,0.00,Wunderground v.1.13,2013-12-22 02:20:00,
2013-12-21 21:30:00,74.1,57.9,29.76,SE,135,2.0,10.0,57,0.00,,,0.00,Wunderground v.1.13,2013-12-22 02:30:00,
2013-12-21 21:40:00,74.1,57.9,29.76,SE,135,2.0,10.0,57,0.00,,,0.00,Wunderground v.1.13,2013-12-22 02:40:00,
2013-12-21 21:50:00,73.9,58.2,29.76,SE,135,1.0,7.0,58,0.00,,,0.00,Wunderground v.1.13,2013-12-22 02:50:00,
2013-12-21 22:00:00,73.9,58.2,29.76,SE,135,1.0,7.0,58,0.00,,,0.00,Wunderground v.1.13,2013-12-22 03:00:00,
2013-12-21 22:10:00,73.9,58.2,29.76,SE,135,1.0,7.0,58,0.00,,,0.00,Wunderground v.1.13,2013-12-22 03:10:00,
2013-12-21 22:20:00,74.5,58.3,29.76,SSE,158,1.0,12.0,57,0.00,,,0.00,Wunderground v.1.13,2013-12-22 03:20:00,
2013-12-21 22:30:00,74.5,58.3,29.76,SSE,158,1.0,12.0,57,0.00,,,0.00,Wunderground v.1.13,2013-12-22 03:30:00,
2013-12-21 22:40:00,74.5,58.3,29.76,SSE,158,1.0,12.0,57,0.00,,,0.00,Wunderground v.1.13,2013-12-22 03:40:00,
2013-12-21 22:50:00,74.6,58.8,29.76,SE,135,2.0,15.0,58,0.00,,,0.00,Wunderground v.1.13,2013-12-22 03:50:00,
2013-12-21 23:00:00,74.6,58.8,29.76,SE,135,2.0,15.0,58,0.00,,,0.00,Wunderground v.1.13,2013-12-22 04:00:00,
2013-12-21 23:10:00,74.6,58.8,29.76,SE,135,2.0,15.0,58,0.00,,,0.00,Wunderground v.1.13,2013-12-22 04:10:00,
2013-12-21 23:20:00,74.5,59.2,29.75,SE,135,2.0,9.0,59,0.00,,,0.00,Wunderground v.1.13,2013-12-22 04:20:00,
2013-12-21 23:30:00,74.5,59.2,29.75,SE,135,2.0,9.0,59,0.00,,,0.00,Wunderground v.1.13,2013-12-22 04:30:00,
2013-12-21 23:40:00,74.5,59.2,29.75,SE,135,2.0,9.0,59,0.00,,,0.00,Wunderground v.1.13,2013-12-22 04:40:00,
2013-12-21 23:50:00,73.6,59.3,29.76,SE,135,0.0,7.0,61,0.00,,,0.00,Wunderground v.1.13,2013-12-22 04:50:00,